Weather in Artyushkino

Russia / Samara Oblast     54°25′05″N   51°22′28″E
temp.,
°C
wind,
m/s
gust,
m/s
humid.,
%
clouds,
%
prec.,
mm/h
press.,
hPa
HPBL,
m
4 march, thu
thu401:00−7wnw4994100 0.1 1005426
04:00−11wsw479696 0.2 1005103
07:00−11sw5119673 0.1 1003246
10:00−7sw7119486 0.4 1002434
13:00−2sw91492100 0.3 1000818
16:00−1sw101596100 1.5 9971080
19:000wsw91597100 1.6 9951019
22:00−1w81496100 2.2 997886
5 march, fri
fri501:00−3w51189100 0.3 998406
04:00−4w3892100 0.3 1000282
07:00−5wnw2497100 0.3 1000126
10:00−5nnw2395100 1.0 1002264
13:00−5nnw3490100 0.3 1003449
16:00−6nw3589100 0.3 1005370
19:00−12nw23910 0.0 100821
22:00−15w22890 0.0 101120
6 march, sat
sat601:00−15sw23920 0.0 101220
04:00−15sw33950 0.0 101232
07:00−15ssw349614 0.0 101249
10:00−10wsw479656 0.2 1013283
13:00−8w4693100 0.1 1013471
16:00−9nw5690100 0.2 1013585
19:00−14nw3394100 0.0 101327
22:00−18nw239793 0.0 101420
7 march, sun
sun701:00−20nw2210037 0.0 101320
04:00−21nw2210067 0.1 101420
07:00−22w1210097 0.0 101420
10:00−18sw239791 0.1 1014110
13:00−14ssw359374 0.0 1013244
16:00−11ssw589284 0.1 1011504
19:00−13s499696 0.1 1010178
22:00−12s6139498 0.1 1008351
8 march, mon
mon801:00−9s71594100 0.4 1004650
04:00−7ssw91594100 1.7 1000928
07:00−5sw81494100 1.8 1000870
10:00−9wsw5108969 2.0 1002368
13:00−7sw610770 0.0 1004457
16:00−6s5107917 0.0 1003527
19:00−4sse81594100 0.7 998788
22:00−5wsw101686100 1.9 9961056